Regional Weather Roundup
Issued by NWS

Home | Current Version | Previous Version | Graphics & Text | Print | Product List | Glossary On
Versions: 1 2 3 4 5 6 7 8 9 10 11 12 13 14 15 16 17 18 19 20 21 22 23 24 25 26 27 28 29 30 31 32 33 34 35 36 37 38 39 40 41 42 43 44 45 46 47 48 49 50
000
ASUS43 KDMX 271707
RWRIA

WEATHER ROUNDUP FOR IOWA
NATIONAL WEATHER SERVICE DES MOINES IA
1200 PM CDT FRI MAR 27 2015

NOTE: "FAIR" INDICATES FEW OR NO CLOUDS BELOW 12,000 FEET WITH NO
SIGNIFICANT WEATHER AND/OR OBSTRUCTIONS TO VISIBILITY.

* - THESE STATIONS ARE NOT NWS STATIONS...THUS NOT UNDER NWS
QUALITY CONTROL.  THEY ALSO DO NOT REPORT WEATHER SUCH
AS PRECIPITATION OR FOG.

IAZ001>003-012>014-020>022-031>034-043>046-271800-
   NORTHWEST IOWA

CITY           SKY/WX    TMP DP  RH WIND       PRES   REMARKS
CARROLL *      SUNNY     32   9  37 NW7       30.26S WCI  26
CHEROKEE *     SUNNY     32   9  37 CALM      30.25F
DENISON *      SUNNY     32  10  40 SW5       30.25S WCI  27
LE MARS *      SUNNY     32  12  43 SW5       30.26F WCI  27
ORANGE CITY *  SUNNY     32   9  37 W6        30.23F WCI  26
SHELDON *      SUNNY     30   9  40 VRB7      30.22F WCI  23
SIOUX CITY     PTSUNNY   33  12  41 VRB5      30.27F WCI  29
SPENCER        MOSUNNY   33  10  38 N5        30.24F WCI  29
STORM LAKE *   SUNNY     32   9  37 VRB3      30.24F
$$

IAZ055>058-069>071-079>083-090>094-271800-
   SOUTHWEST IOWA

CITY           SKY/WX    TMP DP  RH WIND       PRES   REMARKS
ATLANTIC *     SUNNY     36  16  44 VRB7      30.27S WCI  30
AUDUBON *      SUNNY     36  10  35 NW5       30.26F WCI  32
CLARINDA *     SUNNY     36  18  48 N9        30.30S WCI  29
COUNCIL BLFS * SUNNY     34  16  47 NW7       30.28S WCI  28
CRESTON *      SUNNY     34  16  47 NE8G15    30.25F WCI  27
HARLAN  *      SUNNY     34  14  44 CALM      30.30F
LAMONI         MOSUNNY   37  16  42 N14G21    30.25S WCI  28
RED OAK *      MOSUNNY   34  19  55 W9        30.29S WCI  26
SHENANDOAH *   MOSUNNY   34  18  51 NW6       30.30F WCI  29
$$

IAZ047>049-059>061-072>074-084-271800-
   CENTRAL IOWA

CITY           SKY/WX    TMP DP  RH WIND       PRES   REMARKS
AMES           SUNNY     35   9  33 VRB7      30.26F WCI  29
ANKENY *       SUNNY     34  10  37 CALM      30.27S
CHARITON *     SUNNY     34  12  40 N10G17    30.24F WCI  26
DES MOINES     MOSUNNY   36   8  31 VRB7      30.27S WCI  30
GRINNELL*      SUNNY     34   9  35 N12       30.25F WCI  25
KNOXVILLE *    SUNNY     34  10  37 NW13      30.24F WCI  25
MARSHALLTOWN   SUNNY     32  10  40 N12       30.25F WCI  23
PELLA *        SUNNY     36  16  44 N12       30.26F WCI  27
PERRY *          N/A     34  12  40 N9        30.26F WCI  26
$$

IAZ004>006-015-016-023>025-035-036-271800-
   NORTH CENTRAL IOWA

CITY           SKY/WX    TMP DP  RH WIND       PRES   REMARKS
ALGONA *       SUNNY     30   7  37 N7        30.25F WCI  23
CLARION *      SUNNY     32  10  40 VRB6G12   30.26F WCI  26
ESTHERVILLE    MOSUNNY   28   8  43 CALM      30.24F
FORT DODGE *   SUNNY     32  10  40 NE7       30.26F WCI  26
MASON CITY     SUNNY     31  10  41 N8        30.25F WCI  23
FOREST CITY *  SUNNY     32   9  37 N5        30.24F WCI  27
IOWA FALLS *     N/A     32   9  37 N6        30.26S WCI  26
$$

IAZ007>011-017>019-026>030-037>042-050>054-066-271800-
   NORTHEAST IOWA

CITY           SKY/WX    TMP DP  RH WIND       PRES   REMARKS
CEDAR RAPIDS   SUNNY     31   7  36 N9G17     30.23F WCI  23
CHARLES CITY * SUNNY     28  10  47 N6        30.26F WCI  22
CLINTON *      SUNNY     28   9  43 N12G22    30.25F WCI  18
DECORAH *      SUNNY     25   7  46 N9        30.23F WCI  15
DUBUQUE        SUNNY     29   6  38 NE15G21   30.21F WCI  18
MONTICELLO *   SUNNY     30   7  37 VRB6G14   30.24S WCI  24
OELWEIN *      SUNNY     28   9  43 N10G18    30.25F WCI  19
WATERLOO       SUNNY     31   8  38 MISG      30.25F
$$

IAZ064-065-067-068-078-271800-
   EAST CENTRAL IOWA

CITY           SKY/WX    TMP DP  RH WIND       PRES   REMARKS
DAVENPORT      SUNNY     31   8  38 NE13      30.23F WCI  21
IOWA CITY      SUNNY     33   6  32 N13       30.26F WCI  24
MT. PLEASANT * SUNNY     34  12  40 N14G25    30.23F WCI  24
MUSCATINE *    SUNNY     34   5  29 NE12      30.25F WCI  25
QUAD CITIES    SUNNY     32   8  36 NE14      30.23S WCI  22
$$

IAZ062-063-075>077-085>089-095>099-271800-
   SOUTHEAST IOWA

CITY           SKY/WX    TMP DP  RH WIND       PRES   REMARKS
BURLINGTON     SUNNY     36  14  40 N13G18    30.22S WCI  27
FAIRFIELD *    SUNNY     34   9  35 NW8G22    30.24F WCI  27
FORT MADISON * MOSUNNY   36  18  48 N12G17    30.23S WCI  27
KEOKUK *       PTSUNNY   37  16  41 NE13      30.21S WCI  29
OSKALOOSA *      N/A     34  12  40 N14G21    30.25S WCI  24
CENTERVILLE *  SUNNY     36  14  41 N9G17     30.24F WCI  29
OTTUMWA        MOSUNNY   35  13  40 N10G20    30.22F WCI  27
WASHINGTON *   SUNNY     34   7  32 NW12G17   30.24F WCI  25
$$

ABBREVIATIONS USED IN REMARKS
   TC - TEMPERATURES IN CELSIUS
  WCI - WIND CHILL INDEX
   HX - HEAT INDEX
  VSB - VISIBILITY
$$



USA.gov is the U.S. government's official web portal to all federal, state and local government web resources and services.